Clarinda, IA

8:12 PM CST on February 23, 2017 (GMT -0600)
Schenck

Weather History for KICL - October, 2013

Change the Weather History Date:

Wednesday, October 30, 2013

  Actual Average Record
Temperature  
Mean Temperature 55 °F -  
Max Temperature 62 °F 56 °F 75 °F (2000)
Min Temperature 46 °F 37 °F 28 °F (2015)
Degree Days  
Heating Degree Days 10    
Growing Degree Days 5 (Base 50)    
Moisture  
Dew Point 57 °F    
Average Humidity 97    
Maximum Humidity 100    
Minimum Humidity 88    
Precipitation  
Precipitation 0.35 in - - ()
Sea Level Pressure  
Sea Level Pressure 29.85 in    
Wind  
Wind Speed 5 mph (East)    
Max Wind Speed 18 mph    
Max Gust Speed 30 mph    
Visibility 6 miles    
Events Fog , Rain    
Averages and records for this station are not official NWS values.
T = Trace of Precipitation, MM = Missing Value Source: NWS Daily Summary

Daily Weather History Graph

Daily Weather History Graph

Search for Another Location

Airport or City:

Trip Planner

Search our weather history database for the weather conditions in past years. The results will help you decide how hot, cold, wet, or windy it might be!

Date:

Astronomy

Oct. 30, 2013 Rise Set
Actual Time 7:48 AM CDT 6:18 PM CDT
Civil Twilight 7:20 AM CDT 6:46 PM CDT
Nautical Twilight 6:47 AM CDT 7:19 PM CDT
Astronomical Twilight 6:15 AM CDT 7:50 PM CDT
Moon 3:36 AM CDT (10/30) 4:05 PM CDT (10/30)
Length of Visible Light 11h 26m
Length of Day
10h 30m
Waning Crescent, 17% of the Moon is Illuminated
Oct 30
Waning Crescent
Nov 3
New
Nov 9
First Quarter
Nov 17
Full
Nov 25
Last Quarter

Hourly Weather History & Observations

Time (CDT) Temp. Windchill Dew Point Humidity Pressure Visibility Wind Dir Wind Speed Gust Speed Precip Events Conditions
12:15 AM 57.2 °F - 57.2 °F 100% 29.99 in 2.0 mi SSE 4.6 mph - N/A   Overcast
12:35 AM 57.2 °F - 57.2 °F 100% 29.98 in 2.5 mi SE 3.5 mph - N/A   Overcast
12:55 AM 57.2 °F - 57.2 °F 100% 29.98 in 4.0 mi Calm Calm - N/A   Overcast
1:15 AM 57.2 °F - 57.2 °F 100% 29.97 in 10.0 mi SE 3.5 mph - N/A   Overcast
1:35 AM 57.2 °F - 57.2 °F 100% 29.97 in 9.0 mi SSE 5.8 mph - N/A   Overcast
1:55 AM 57.2 °F - 57.2 °F 100% 29.96 in 6.0 mi SSE 6.9 mph - N/A   Overcast
2:15 AM 57.2 °F - 57.2 °F 100% 29.95 in 5.0 mi SSE 6.9 mph - N/A   Overcast
2:35 AM 57.2 °F - 57.2 °F 100% 29.95 in 3.0 mi SSE 6.9 mph 12.7 mph N/A   Overcast
2:55 AM 57.2 °F - 57.2 °F 100% 29.95 in 3.0 mi SSW 4.6 mph - N/A   Overcast
3:15 AM 57.2 °F - 57.2 °F 100% 29.95 in 3.0 mi SSW 3.5 mph - N/A   Overcast
3:35 AM 57.2 °F - 57.2 °F 100% 29.95 in 1.0 mi Calm Calm - N/A   Overcast
3:55 AM 57.2 °F - 57.2 °F 100% 29.95 in 0.5 mi Calm Calm - N/A Fog Fog
4:15 AM 57.2 °F - 57.2 °F 100% 29.94 in 0.5 mi Calm Calm - N/A Fog Fog
4:35 AM 57.2 °F - 57.2 °F 100% 29.94 in 0.2 mi Calm Calm - N/A Fog Fog
4:55 AM 57.2 °F - 57.2 °F 100% 29.93 in 0.5 mi Calm Calm - N/A Fog Fog
5:15 AM 57.2 °F - 57.2 °F 100% 29.95 in 0.5 mi Calm Calm - N/A Fog Fog
5:35 AM 57.2 °F - 57.2 °F 100% 29.94 in 0.5 mi Calm Calm - N/A Fog Fog
5:55 AM 57.2 °F - 57.2 °F 100% 29.95 in 0.5 mi SSW 3.5 mph - N/A   Overcast
6:15 AM 57.2 °F - 57.2 °F 100% 29.89 in 0.5 mi NNW 17.3 mph - N/A   Overcast
6:35 AM 59.0 °F - 59.0 °F 100% 29.94 in 2.0 mi West 11.5 mph - N/A Rain Light Rain
6:55 AM 59.0 °F - 59.0 °F 100% 29.91 in 2.5 mi Calm Calm - N/A   Overcast
7:15 AM 59.0 °F - 59.0 °F 100% 29.91 in 2.5 mi South 3.5 mph - N/A   Overcast
7:35 AM 59.0 °F - 59.0 °F 100% 29.91 in 3.0 mi Calm Calm - N/A   Overcast
7:55 AM 59.0 °F - 59.0 °F 100% 29.90 in 3.0 mi Calm Calm - 0.02 in   Overcast
8:15 AM 59.0 °F - 59.0 °F 100% 29.88 in 2.5 mi SE 5.8 mph - N/A   Overcast
8:35 AM 59.0 °F - 59.0 °F 100% 29.87 in 3.0 mi Calm Calm - N/A   Overcast
8:55 AM 59.0 °F - 59.0 °F 100% 29.85 in 4.0 mi SE 6.9 mph - N/A   Overcast
9:15 AM 59.0 °F - 59.0 °F 100% 29.85 in 5.0 mi South 6.9 mph - N/A   Overcast
9:35 AM 60.8 °F - 60.8 °F 100% 29.83 in 9.0 mi South 10.4 mph - N/A   Overcast
9:55 AM 60.8 °F - 59.0 °F 94% 29.86 in 9.0 mi South 6.9 mph 13.8 mph N/A   Overcast
10:15 AM 60.8 °F - 59.0 °F 94% 29.91 in 9.0 mi WNW 18.4 mph 29.9 mph N/A   Overcast
10:35 AM 59.0 °F - 57.2 °F 94% 29.92 in 2.5 mi NW 16.1 mph 23.0 mph N/A Rain Heavy Rain
10:55 AM 57.2 °F - 57.2 °F 100% 29.92 in 3.0 mi NE 9.2 mph - 0.25 in Rain Rain
11:15 AM 57.2 °F - 57.2 °F 100% 29.90 in 4.0 mi NNE 12.7 mph - N/A Rain Heavy Rain
11:35 AM 59.0 °F - 57.2 °F 94% 29.86 in 5.0 mi East 12.7 mph - N/A Rain Light Rain
11:55 AM 59.0 °F - 57.2 °F 94% 29.84 in 9.0 mi East 12.7 mph - 0.07 in Rain Light Rain
12:15 PM 59.0 °F - 59.0 °F 100% 29.85 in 10.0 mi ENE 8.1 mph 20.7 mph N/A   Partly Cloudy
12:35 PM 60.8 °F - 59.0 °F 94% 29.86 in 10.0 mi North 4.6 mph - N/A   Scattered Clouds
12:55 PM 60.8 °F - 59.0 °F 94% 29.85 in 10.0 mi NNE 5.8 mph - 0.01 in   Overcast
1:15 PM 60.8 °F - 59.0 °F 94% 29.84 in 10.0 mi NNE 4.6 mph - N/A   Overcast
1:35 PM 60.8 °F - 59.0 °F 94% 29.82 in 10.0 mi Variable 5.8 mph - N/A   Overcast
1:55 PM 60.8 °F - 59.0 °F 94% 29.81 in 10.0 mi NE 6.9 mph - N/A   Overcast
2:15 PM 60.8 °F - 59.0 °F 94% 29.80 in 10.0 mi East 10.4 mph - N/A   Overcast
2:35 PM 62.6 °F - 59.0 °F 88% 29.80 in 10.0 mi East 5.8 mph - N/A   Overcast
2:55 PM 62.6 °F - 59.0 °F 88% 29.80 in 10.0 mi ESE 6.9 mph - N/A   Overcast
3:15 PM 62.6 °F - 59.0 °F 88% 29.78 in 10.0 mi East 8.1 mph - N/A   Overcast
3:35 PM 62.6 °F - 59.0 °F 88% 29.77 in 10.0 mi Variable 3.5 mph - N/A   Overcast
3:55 PM 62.6 °F - 59.0 °F 88% 29.77 in 10.0 mi Calm Calm - N/A   Overcast
4:15 PM 62.6 °F - 59.0 °F 88% 29.76 in 10.0 mi Calm Calm - N/A   Overcast
4:35 PM 62.6 °F - 59.0 °F 88% 29.76 in 10.0 mi ESE 5.8 mph - N/A   Overcast
4:55 PM 62.6 °F - 59.0 °F 88% 29.75 in 10.0 mi East 4.6 mph - N/A   Overcast
5:15 PM 60.8 °F - 59.0 °F 94% 29.75 in 10.0 mi Calm Calm - N/A   Overcast
5:35 PM 60.8 °F - 59.0 °F 94% 29.75 in 10.0 mi Calm Calm - N/A   Overcast
5:55 PM 60.8 °F - 59.0 °F 94% 29.75 in 10.0 mi Calm Calm - N/A   Overcast
6:15 PM 60.8 °F - 59.0 °F 94% 29.73 in 10.0 mi Calm Calm - N/A   Overcast
7:55 PM 59.0 °F - 59.0 °F 100% 29.72 in 10.0 mi Calm Calm - N/A   Overcast
8:15 PM 59.0 °F - - N/A% 29.73 in 10.0 mi Calm Calm - N/A   Overcast
8:35 PM 55.4 °F - 53.6 °F 94% 29.73 in 9.0 mi NW 8.1 mph - N/A   Overcast
8:55 PM 51.8 °F - - N/A% 29.74 in 7.0 mi WNW 8.1 mph 15.0 mph N/A   Overcast
9:15 PM 50.0 °F - - N/A% 29.74 in 2.5 mi NW 10.4 mph 16.1 mph N/A   Overcast
9:35 PM 50.0 °F - - N/A% 29.75 in 1.5 mi NNW 11.5 mph 17.3 mph N/A   Overcast
9:55 PM 50.0 °F - - N/A% 29.74 in 2.5 mi NW 9.2 mph - N/A   Overcast
10:15 PM 50.0 °F - - N/A% 29.75 in 8.0 mi NNW 13.8 mph - N/A   Overcast
10:35 PM 50.0 °F - 48.2 °F 94% 29.76 in 9.0 mi NW 10.4 mph - N/A   Overcast
10:55 PM 48.2 °F - 48.2 °F 100% 29.76 in 8.0 mi NNW 13.8 mph 19.6 mph N/A   Overcast
11:15 PM 48.2 °F - 48.2 °F 100% 29.75 in 7.0 mi NW 10.4 mph 17.3 mph N/A   Overcast
11:35 PM 48.2 °F - 46.4 °F 93% 29.76 in 8.0 mi NW 10.4 mph 17.3 mph N/A   Overcast
11:55 PM 46.4 °F 41.5 °F 46.4 °F 100% 29.77 in 8.0 mi NW 10.4 mph - N/A   Overcast